TITAN 3C TRANSTAGE DEB, 38693

Orbit data source: Space-Track

TITAN 3C TRANSTAGE DEB, 38693 is space debris in GEO originally from a launch on Thu, 26 Sep 1968 UTC launched from the Air Force Eastern Test Range (AFETR). Debris objects in space refer to the collection of defunct objects orbiting the Earth. Examples of debris include non-operational satellites, rocket bodies, and fragments generated from explosions, collisions, or faulty payload assembly.

Loading next visibility...
Identifier
38693, 1968-081T
Orbit
GEO
Country
Flag of USUS
Related business
Manufacturer
Unknown
Mission
Spacecraft
Bus & Motor
Unknown
Mass
Unknown
Launch date (UTC)
1968-09-26 (57 years ago)
Launch vehicle
Unknown
Launch site
Air Force Eastern Test Range (AFETR)
Object type
Payload
Rocket body
Debris
Shape & HBR
Unknown shape, 1.1 m
Radar Cross Section
Small (<0.1 m²)

Expand to show TLE details & history
Last TLE update: 2 days ago

TLE from 2 days ago
0 TITAN 3C TRANSTAGE DEB
1 38693U 68081T   26067.02761652 -.00000262  00000-0  00000-0 0  9993
2 38693   2.7913  64.5395 0117282 204.9636 154.8639  1.02824678 47584
Epoch: 2026-03-08T00:39Z
TLE epoch observation values (Epoch: 2026-03-08T00:39:46.067Z)
Latitude
-0.00001°
Longitude
-110.73562°
Altitude
35,524.492 km
Speed
3.068 km/s
True Right ascension
04h 19m 47s
True Declination
0° 00' 00"
Sunlit
Object was in daylight at epoch
Visualization orbit readout
Latitude
Unknown
Longitude
Unknown
Altitude
Unknown
Speed
Unknown
Apparent Right ascension
Unknown
Apparent Declination
Unknown
Sunlit
N/A
Visualization observer readout
Local Sidereal Time
19:30:27
Azimuth
Unknown
Elevation
Unknown
Doppler factor
Unknown
Orbital elements
Apogee altitude
35,573.168 km
Perigee altitude
34,600.549 km
Semi-major axis
41,464.996 km
Eccentricity
0.01173
Inclination
2.7913°
RAAN
64.5395°
Arg. of periapsis
204.9636°
True anomaly
155.42728°
Mean anomaly
154.8639°
Eccentric anomaly
155.14633°
Mean motion
0.25705 °/min
Orbital period
1,400.5 mins
BSTAR
0
Loading maneuver chart data...
Computing Atmospheric mass density...

Documentation

Showing up to 5 results
|